Regional Weather Roundup
Issued by NWS Burlington, VT

Home | Current Version | Previous Version | Text Only | Print | Product List | Glossary On
Versions: 1 2 3 4 5 6 7 8 9 10 11 12 13 14 15 16 17 18 19 20 21 22 23 24 25 26 27 28 29 30 31 32 33 34 35 36 37 38 39 40 41 42 43 44 45 46 47 48 49 50
000
ASUS41 KBTV 130330
RWRBTV
VERMONT REGIONAL WEATHER ROUNDUP
NATIONAL WEATHER SERVICE BURLINGTON VT
1000 PM EST TUE DEC 12 2017

NOTE: "FAIR" INDICATES FEW OR NO CLOUDS BELOW 12,000 FEET WITH NO
SIGNIFICANT WEATHER AND/OR OBSTRUCTIONS TO VISIBILITY.

* THESE REPORTS ARE NOT UNDER NWS QUALITY CONTROL AND/OR DO NOT
  REPORT WEATHER SUCH AS PRECIPITATION AND FOG.

VTZ001>019-130400-
_____VERMONT_____


CITY           SKY/WX    TMP DP  RH WIND       PRES   REMARKS
BURLINGTON     FLURRIES  24  20  84 NE9       29.40S WCI  14
MONTPELIER     FLURRIES  25  22  88 NW17G24   29.33S WCI  12
MORRISVILLE    FLURRIES  21  19  92 N16G22    29.36S WCI   7
ST. JOHNSBURY*   N/A     28  28 100 MISG      29.28F
LYNDONVILLE*   LGT SNOW  28  27  98 W10G20    29.28F WCI  18
MIDDLEBURY*    FLURRIES  28  27  93 SW3       29.36F
RUTLAND*       FLURRIES  28  26  92 W10       29.36F WCI  19
SPRINGFIELD    CLOUDY    30  23  75 W13G22    29.32F WCI  20
HIGHGATE*      LGT SNOW  19  17  93 CALM      29.43S
NEWPORT*       FLURRIES  22  18  84 W14       29.32S WCI  10
BENNINGTON     LGT SNOW  25  17  72 W16G35    29.39F WCI  12
ISLAND POND*     N/A     27 N/A N/A CALM        N/A
GALLUP MILLS*    N/A     25 N/A N/A MISG        N/A
UNION VILLAGE*   N/A     27 N/A N/A MISG        N/A
MT. MANSFIELD*   N/A     18 N/A N/A CALM        N/A

_____LAKE CHAMPLAIN_____


CITY           SKY/WX    TMP DP  RH WIND       PRES   REMARKS
BURTON ISLAND*   N/A     25  23  93 N10G16      N/A  WCI  15
COLCHESTER RF*   N/A     32  23  69 N15         N/A  WCI  22
DIAMOND ISL*     N/A     32  25  74 NW12        N/A  WCI  23

$$

NYZ007-026>031-035-052-083-087-130400-
_____NORTHERN NEW YORK_____


CITY           SKY/WX    TMP DP  RH WIND       PRES   REMARKS
PLATTSBURGH    CLOUDY    27  18  69 NW6       29.41S WCI  20
SARANAC LAKE   CLOUDY    17  15  92 VRB5      29.36S WCI  10
MASSENA        LGT SNOW  19  17  92 SW7       29.49F FOG     WCI  10
OGDENSBURG*    FLURRIES  19  17  91 NW7       29.48F WCI   9
POTSDAM*       CLOUDY    18  16  93 SW7       29.48S WCI   8
STARK FALLS*     N/A     16 N/A N/A NW3         N/A
WATERTOWN      CLOUDY    20  15  81 NW7       29.50F WCI  11
FT DRUM        FLURRIES  18  16  93 CALM      29.46F
ALBANY         CLOUDY    26  12  55 W29G40    29.47F WCI  10
GLENS FALLS    CLOUDY    28  21  75 W6        29.41F WCI  22

$$
NHZ002-005-011-130400-
_____NEW HAMPSHIRE_____


CITY           SKY/WX    TMP DP  RH WIND       PRES   REMARKS
LEBANON        CLOUDY    28  26  92 S3        29.30F
KEENE          MIX PCPN  30  28  93 NW6       29.35R WCI  24
MT WASHINGTON  SNOW      18  18 100 SW17G26     N/A  VSB 1/16WCI   2
PLYMOUTH       CLOUDY    30  28  92 W5        29.27F WCI  25
WHITEFIELD     LGT SNOW  26  24  92 CALM      29.27F FOG

$$

_____REGIONAL QUEBEC LOCATIONS_____


CITY           SKY/WX    TMP DP  RH WIND       PRES   REMARKS
MONTREAL       LGT SNOW  19  16  86 W8        29.44F WCI   9
QUEBEC CITY    HVY SNOW  19  18  93 NE14G22   29.42F VSB 1/4 WCI   6
SHERBROOKE     LGT SNOW  21  19  93 NE6       29.28F WCI  14

_____REGIONAL ONTARIO LOCATIONS_____


CITY           SKY/WX    TMP DP  RH WIND       PRES   REMARKS
OTTAWA         FLURRIES  14  12  92 W9        29.47F WCI   2

______KEY______
VSB  - VISIBILITY IN MILES
WCI  - WIND CHILL INDEX
HX   - HEAT INDEX
$$
NNNN



USA.gov is the U.S. government's official web portal to all federal, state and local government web resources and services.